User: anonymous   Login
Location: Unspecified
(0.0000°N, 0.0000°E)
Time: 15:16:03
(UTC+00:00)
Language:

USA 188 - Orbit

View from above orbital plane
View from above orbital plane
View from above satellite
View from above satellite

Ground track
Ground track

The orbit data is extracted from the following two-line orbital elements,

1 29241U 06024B   18228.41906044 0.00000000  00000-0  00000-0 0    02
2 29241   6.7443  56.8997 0004299  97.7435 262.3172  0.98861067    05
Epoch (UTC): 16 August 2018 10:03:26
Eccentricity: 0.0004299
inclination: 6.7443°
perigee height: 36168 km
apogee height: 36204 km
right ascension of ascending node: 56.8997°
argument of perigee: 97.7435°
revolutions per day: 0.98861067
mean anomaly at epoch: 262.3172°
orbit number at epoch: 0

The dashed part of the orbit path shows where the satellite is in the earth's shadow,  

DLR